Weather Refreshing every minute   No change Green  Reduced Blue  Increased Red  Changed Cyan
DescriptionDate Time (UTC/GMT)Temperature °CDew Point Temperature °CLiquid Freezing temperature °CMax Wind Direction °C Max Wind Speed m/sPrecipitation Total mmRain Intensity mm/hrRain On/OffRain State Relative Humidity %Surface StateSurface Temperature °CWater Layer mmWater Thickness mmWind Direction °D Wind Speed m/s
B1318 Great North Road 11/05/2021 10:50:00 13.9 4.5 0 0 4.5 0 0 Unavailable No Precipitation 53 Dry 25.7 0 0 207 2.6
B1318 11/05/2021 10:50:00 14 2.3 0 0 8.1 0 0 Unavailable No Precipitation 45.1 Dry 29 0 0 164 3.4
C304 Garesfield 11/05/2021 10:50:00 12.5 5 0 202 8.6 0 0 Rain detector off No Precipitation 60 Dry 28.4 0 0 200 4.5
A1231 Wessington Way 11/05/2021 10:40:00 14.2 5 0 295 2.3 0 0 Rain detector off No Precipitation 54 Dry 28.9 0 0 202 1.1
Burdon Lane 11/05/2021 10:40:00 12.3 4.8 -0.1 0 3.4 0 0 Unavailable Unavailable 60 Dry 30.7 0 0 198 3.2
A690 Houghton Cut 11/05/2021 10:40:00 13.9 4.6 0 229 5.9 0 0 Rain detector off No Precipitation 53 Dry 30.5 0 0 182 3.8
A1018 Sunderland Road 11/05/2021 10:50:00 14.7 4.2 0 28 6.2 0 0 Rain detector off No Precipitation 49 Dry 34.1 0 0 227 3.2
Hedworth Lane 11/05/2021 10:50:00 14.4 4.7 -0.2 256 6.9 0 0 Rain detector off No Precipitation 52 Dry 32.7 0 0 133 3.4
A185 Hebburn 11/05/2021 10:50:00 14.8 3.6 0 0 0 0 0 Unavailable Unavailable 47.1 Unavailable 24.9 0 0 0 0
A1058 Formica 11/05/2021 10:50:00 15.3 4.3 -0.2 244 3.2 0 0 Rain detector off No Precipitation 48 Dry 31.2 0 0 137 1.5
A1 Berwick-upon-Tweed 11/05/2021 10:50:00 14.1 5.4 -1 47 4.9 0 0 Rain detector off No Precipitation 56 Dry 28.3 0 0 302 2.7
A1 Haggerston 11/05/2021 10:40:00 14.2 4.5 -0.6 278 0 0 0 Rain detector off No Precipitation 52 Dry 34.9 0 0 240 0
A1 Felton 11/05/2021 10:40:00 14.5 5.6 -0.2 16 3.8 0 0 Rain detector off No Precipitation 55 Dry 30.3 0 0 203 1.7
A1 Rosebrough 11/05/2021 10:50:00 13.5 2.4 -0.1 270 9 0 0 Rain detector off No Precipitation 47 Dry 31.2 0 0 224 5.3
A1 Stannington 11/05/2021 10:50:00 14.4 4.5 -0.3 272 5.5 0 0 Rain detector off No Precipitation 51 Dry 29.2 0 0 178 2.7
A697 Longframlington 03/11/2020 10:00:00 5.8 2.9 0 0 5.4 0 0 Rain detector off No Precipitation 82 Moist 7.3 0 0 241 4.7
A698 Norham / B6470 The Salutation 03/11/2020 09:40:00 5.9 2.5 -1.3 264 5.2 0 0 Rain detector off No Precipitation 79 Trace of Chemical 7.4 0 0 229 3.6
A189 Cramlington 03/11/2020 10:00:00 6.6 3 0 281 2.9 0 0 Rain detector off No Precipitation 78 Dry 6.9 0 0 208 1.5
A69 Mowden Hall 03/11/2020 10:00:00 6.6 3.2 0 34 4.7 0 0 Rain detector off No Precipitation 79 Dry 7.4 0 0 251 2.2
A696 Raechester 03/11/2020 10:00:00 4.5 2.9 0 0 7.2 0 0 Rain detector off No Precipitation 89 Moist 5.7 0 0 227 6.6
A1 Metrocentre 03/11/2020 09:50:00 7.1 3.3 -0.1 161 0.9 0 0 Rain detector off No Precipitation 77 Dry 8.2 0 0 58 0.2
A189 Redheugh Bridge 03/11/2020 10:00:00 0 0 0 210 3.5 0 0 Unavailable Unavailable 0 Unavailable 0 0 0 204 2.2
A68 Tow Law 03/11/2020 09:50:00 4.4 2.7 0 251 8.3 0 0 Rain detector off No Precipitation 89 Trace of Chemical 4.3 0 0 219 6.2
A689 Lanehead 03/11/2020 09:50:00 4 1.9 0 289 6.3 0 0 Rain detector off No Precipitation 86 Trace of Chemical 3.9 0 0 233 3.3
A194(M) Blackfell 25/03/2019 14:00:00 11.6 1.1 0 138 3.2 0 0 Rain detector off No Precipitation 48 Dry 0 0 0 31 1.3
Great Stainton 03/11/2020 09:50:00 6.1 3.2 0 257 3.1 0 0 Rain detector off No Precipitation 82 Moist 7.6 0 0 196 1.6
A6072 Redworth 03/11/2020 09:50:00 5.8 2.9 0 124 2.2 0 0 Rain detector off No Precipitation 82 Dry 6.4 0 0 79 1.1
A1 Coniscliffe 03/11/2020 09:40:00 7 2.8 0 261 3.6 0 0 Rain detector off No Precipitation 75 Dry 8.3 0 0 199 2.1
A19 Low Stotfold 03/11/2020 09:50:00 6.9 3.6 0 354 4 0 0 Rain detector off No Precipitation 80 Dry 9 0 0 174 2.4
A66 Elton 03/11/2020 09:50:00 6.9 3.8 0 267 2.6 0 0 Rain detector off No Precipitation 81 Dry 8.2 0 0 138 1
A181 Running Waters 03/11/2020 09:50:00 6.2 3.1 0 219 4.4 0 0 Rain detector off No Precipitation 80 Dry 6.9 0 0 185 2.9
B6277 Forest in Teesdale 03/11/2020 09:50:00 4.3 2.8 0 309 5 0 0 Rain detector off No Precipitation 90 Trace of Chemical 6.6 0 0 256 3.1
A66 North Bitts 03/11/2020 09:20:00 5.2 2.7 0 120 2.9 0 0 Rain detector off No Precipitation 84 Dry 5.6 0 0 30 1
B6309 Medomsley 03/11/2020 09:50:00 5 2.4 0 282 4.8 0 0 Rain detector off No Precipitation 83 Moist 4.6 0 0 244 3
A689 Bradbury 03/11/2020 09:50:00 6.3 3.5 0 210 4.9 0 0 Rain detector off No Precipitation 82 Dry 8 0 0 131 3.4
B1432 Hawthorn 03/11/2020 09:40:00 5.5 2.7 0 292 5.7 0 0 Rain detector off No Precipitation 82 Moist 5.9 0 0 264 3.6
B6302 Ushaw Moor 03/11/2020 09:50:00 5.6 2.3 0 205 2.5 0 0 Rain detector off No Precipitation 79 Dry 4.3 0 0 159 1.5
A689 Toronto 03/11/2020 09:50:00 5.6 2.7 0 203 3.6 0 0 Rain detector off No Precipitation 81 Dry 5.7 0 0 169 2.6
A66 Stainmore 25/03/2019 14:00:00 10.5 0.7 0 304 7.7 0 0 Unavailable Unavailable 59 Dry 0 0 0 250 5